This demonstration page uses our WeatherBlox Daily Observations layout. Learn more.

Hourly Observations for December 2, 2017

Temp ( °F °C ) Dew Point ( °F °C ) Humidity (%) Winds ( mph kmh ) Pressure ( in mb ) Visibility ( mi km ) Precip ( " mm )
12:53 am 00:53 Clear 26 -3.3 25 -3.9 96 96 Calm 30.23 1024 7 11.26538 0 0
1:53 am 01:53 Clear with Mist and Fog 26 -3.3 24 -4.4 92 92 Calm 30.22 1024 6 9.65604 0 0
2:53 am 02:53 Clear with Mist and Fog 24 -4.4 23 -5 96 96 Calm 30.23 1024 6 9.65604 0 0
3:53 am 03:53 Clear 26 -3.3 24 -4.4 92 92 Calm 30.22 1024 9 14.48406 0 0
4:53 am 04:53 Clear 27 -2.8 26 -3.3 96 96 Calm 30.23 1024 7 11.26538 0 0
5:53 am 05:53 Clear 29 -1.7 29 -1.7 100 100 NW 3 6 30.23 1024 7 11.26538 0 0
6:53 am 06:53 Clear 30 -1.1 29 -1.7 96 96 SW 3 6 30.25 1024 7 11.26538 0 0
7:53 am 07:53 Sunny with Mist and Fog 29 -1.7 28 -2.2 96 96 Calm 30.24 1024 5 8.0467 0 0
8:53 am 08:53 Sunny with Mist and Fog 32 0 31 -0.6 96 96 Calm 30.24 1024 5 8.0467 0 0
9:53 am 09:53 Mostly Cloudy 39 3.9 36 2.2 89 89 Calm 30.25 1024 10 16.0934 0 0
10:53 am 10:53 Mostly Sunny 45 7.2 35 1.7 68 68 Calm 30.24 1024 10 16.0934 0 0
11:53 am 11:53 Sunny 48 8.9 36 2.2 63 63 Calm 30.22 1023 10 16.0934 0 0
12:53 pm 12:53 Sunny 52 11.1 34 1.1 50 50 Calm 30.19 1022 10 16.0934 0 0
1:53 pm 13:53 Sunny 53 11.7 33 0.6 47 47 VRB 5 7 30.16 1022 10 16.0934 0 0
2:53 pm 14:53 Sunny 55 12.8 32 0 42 42 VRB 5 7 30.15 1021 10 16.0934 0 0
3:53 pm 15:53 Sunny 54 12.2 30 -1.1 40 40 VRB 5 7 30.13 1020 10 16.0934 0 0
4:53 pm 16:53 Sunny 50 10 31 -0.6 48 48 Calm 30.15 1021 10 16.0934 0 0
5:53 pm 17:53 Clear 40 4.4 31 -0.6 70 70 Calm 30.16 1021 10 16.0934 0 0
6:53 pm 18:53 Clear 35 1.7 30 -1.1 82 82 Calm 30.17 1022 10 16.0934 0 0
7:53 pm 19:53 Clear 32 0 30 -1.1 92 92 Calm 30.17 1022 10 16.0934 0 0
8:53 pm 20:53 Clear 31 -0.6 29 -1.7 92 92 Calm 30.16 1021 10 16.0934 0 0
9:53 pm 21:53 Clear 31 -0.6 29 -1.7 92 92 Calm 30.2 1023 10 16.0934 0 0
10:53 pm 22:53 Clear 30 -1.1 28 -2.2 92 92 Calm 30.19 1022 9 14.48406 0 0
11:53 pm 23:53 Clear 30 -1.1 28 -2.2 92 92 Calm 30.19 1022 10 16.0934 0 0

Powered by AerisWeather